DateTime,F1_A11,F1_S11,BsB_S11,BsG_S11,BsR_S11,BbsB_S11,BbsG_S11,BbsR_S11,BaB_A11,BaG_A11,BaR_A11,T_S11,U_S11,P_S11,T1_A11
2016-07-29T00:00:00Z,0000380,20000600,,,,,,,,,,27.0,05.1,0677.3,34.6
2016-07-29T00:01:00Z,0000380,20000600,,,,,,,,,,27.0,05.1,0677.3,34.6
2016-07-29T00:02:00Z,0000380,20000600,,,,,,,,,,27.0,05.1,0677.3,34.6
2016-07-29T00:03:00Z,0000380,60000600,,,,,,,,,,27.1,05.1,0677.3,34.6
2016-07-29T00:04:00Z,0000380,40000600,0001.91,0001.48,0000.61,0000.47,0000.19,0000.19,-000.11,0000.03,0000.04,27.3,05.3,0678.3,34.6
2016-07-29T00:05:00Z,0000380,00000600,0001.50,0001.91,0000.62,0000.13,0000.26,-000.03,0000.09,0000.07,-000.04,27.3,05.2,0678.3,34.6
2016-07-29T00:06:00Z,0000380,00000600,0002.59,0001.07,0000.46,0000.45,-000.16,-000.02,0000.08,0000.03,-000.03,27.3,05.1,0678.3,34.6
2016-07-29T00:07:00Z,0000380,00000600,0002.36,0001.69,0000.50,-000.20,0000.62,0000.20,0000.10,0000.31,0000.22,27.3,05.2,0678.3,34.6
2016-07-29T00:08:00Z,0000380,00000600,0002.23,0001.40,0000.08,0000.30,0000.50,-000.11,0000.31,-000.19,0000.01,27.3,05.1,0678.4,34.6
2016-07-29T00:09:00Z,0000380,00000600,0001.72,0001.36,0000.72,0000.12,0000.22,0000.03,-000.10,0000.13,0000.06,27.3,05.0,0678.4,34.6
2016-07-29T00:10:00Z,0000380,00000600,0002.69,0001.49,0000.53,0000.00,0000.48,0000.08,0000.24,-000.02,0000.11,27.3,05.1,0678.4,34.6
2016-07-29T00:11:00Z,0000380,00000600,0002.47,0001.52,0000.36,0000.19,0000.33,0000.19,-000.01,0000.22,0000.01,27.3,05.1,0678.3,34.6
2016-07-29T00:12:00Z,0000380,00000600,0001.97,0001.31,0000.78,0000.55,0000.67,0000.13,0000.13,0000.21,0000.00,27.3,05.1,0678.3,34.6
2016-07-29T00:13:00Z,0000380,00000600,0001.67,0001.52,0000.48,0000.39,0000.45,0000.06,0000.03,0000.15,0000.16,27.3,05.2,0678.3,34.6
2016-07-29T00:14:00Z,0000380,00000600,0001.51,0000.92,0000.16,-000.20,0000.20,-000.03,0000.10,0000.09,0000.10,27.3,05.2,0678.3,34.6
2016-07-29T00:15:00Z,0000380,00000600,0002.15,0000.67,0000.71,0000.31,0000.59,-000.09,0000.24,0000.06,0000.11,27.3,05.2,0678.3,34.6
2016-07-29T00:16:00Z,0000380,00000600,0002.16,0001.58,0000.56,0000.00,0000.30,0000.27,-000.12,-000.05,0000.09,27.3,05.2,0678.3,34.6
2016-07-29T00:17:00Z,0000380,00000600,0002.19,0000.94,0000.62,0000.41,0000.30,0000.33,0000.38,0000.17,0000.17,27.3,05.2,0678.3,34.6
2016-07-29T00:18:00Z,0000380,00000600,0001.84,0000.96,0000.40,0000.31,0000.26,0000.30,-000.08,0000.17,0000.10,27.3,05.2,0678.3,34.6
2016-07-29T00:19:00Z,0000380,00000600,0001.65,0000.89,0000.52,-000.17,0000.02,-000.17,0000.26,0000.08,0000.21,27.3,05.2,0678.3,34.6
2016-07-29T00:20:00Z,0000380,00000600,0002.67,0001.38,0000.33,0000.63,0000.25,0000.05,-000.09,0000.03,-000.03,27.3,05.2,0678.3,34.6
2016-07-29T00:21:00Z,0000380,00000600,0002.07,0001.39,0000.97,-000.02,0000.59,0000.42,0000.20,0000.11,0000.01,27.3,05.2,0678.3,34.6
2016-07-29T00:22:00Z,0000380,00000600,0001.94,0000.97,0000.66,0000.78,-000.33,0000.41,0000.01,0000.04,-000.11,27.3,05.1,0678.3,34.6
2016-07-29T00:23:00Z,0000380,00000600,0002.29,0000.89,0000.90,0000.58,0000.42,0000.44,0000.15,0000.05,0000.26,27.3,05.2,0678.3,34.6
2016-07-29T00:24:00Z,0000380,00000600,0002.37,0001.52,0001.05,0000.11,0000.53,0000.20,0000.08,0000.08,-000.21,27.3,05.2,0678.3,34.6
2016-07-29T00:25:00Z,0000380,00000600,0000.64,0001.28,0000.37,0000.09,0000.22,-000.25,0000.13,0000.14,0000.30,27.3,05.2,0678.3,34.6
2016-07-29T00:26:00Z,0000380,00000600,0002.23,0001.61,0000.78,0000.00,0000.12,0000.05,0000.17,0000.25,0000.21,27.2,05.2,0678.3,34.6
2016-07-29T00:27:00Z,0000380,00000600,0001.72,0001.72,0000.23,0000.34,0000.50,-000.02,0000.03,0000.06,-000.10,27.3,05.1,0678.3,34.6
2016-07-29T00:28:00Z,0000380,00000600,0002.81,0001.10,0000.75,0000.03,0000.08,-000.14,0000.21,0000.19,0000.24,27.3,05.2,0678.3,34.6
2016-07-29T00:29:00Z,0000380,00000600,0001.94,0001.47,0000.21,0000.39,0000.23,0000.03,0000.06,-000.07,0000.05,27.3,05.2,0678.3,34.6
2016-07-29T00:30:00Z,0000380,00000600,0001.41,0001.34,0001.14,0000.22,0000.36,0000.45,0000.00,0000.08,-000.05,27.3,05.1,0678.3,34.6
2016-07-29T00:31:00Z,0000380,00000600,0002.65,0001.34,0000.74,-000.08,0000.34,0000.45,0000.20,0000.06,-000.05,27.3,05.1,0678.3,34.6
2016-07-29T00:32:00Z,0000380,00000600,0002.28,0001.16,0000.47,0000.17,0000.16,0000.16,-000.03,0000.09,0000.17,27.3,05.1,0678.3,34.6
2016-07-29T00:33:00Z,0000380,00000600,0002.21,0001.38,0000.48,0000.55,0000.28,0000.23,0000.09,-000.00,-000.28,27.3,05.1,0678.2,34.6
2016-07-29T00:34:00Z,0000380,00000600,0002.62,0001.82,0000.48,0000.22,0000.22,0000.06,0000.12,0000.22,0000.33,27.3,05.1,0678.2,34.6
2016-07-29T00:35:00Z,0000380,00000600,0002.27,0001.61,0000.43,0000.05,-000.34,0000.38,0000.02,-000.06,0000.27,27.3,05.2,0678.2,34.6
2016-07-29T00:36:00Z,0000380,00000600,0001.80,0000.86,0000.80,0000.14,0000.05,0000.17,0000.39,0000.37,0000.04,27.3,05.2,0678.2,34.6
2016-07-29T00:37:00Z,0000380,00000600,0001.01,0001.24,0001.04,0000.48,0000.26,-000.06,-000.11,-000.19,-000.36,27.3,05.2,0678.2,34.6
2016-07-29T00:38:00Z,0000380,00000600,0002.74,0001.01,0000.39,0000.38,0000.50,0000.56,-000.15,-000.15,0000.39,27.3,05.0,0678.2,34.6
2016-07-29T00:39:00Z,0000380,00000600,0003.46,0001.02,0000.72,-000.45,0000.00,-000.03,0000.17,0000.14,0000.04,27.3,04.9,0678.2,34.6
2016-07-29T00:40:00Z,0000380,00000600,0001.92,0001.71,0000.78,-000.05,0000.31,-000.23,-000.02,0000.21,0000.16,27.3,05.0,0678.2,34.6
2016-07-29T00:41:00Z,0000380,00000600,0002.26,0001.05,0000.28,0000.13,-000.08,-000.16,0000.25,0000.16,-000.39,27.3,05.0,0678.2,34.6
2016-07-29T00:42:00Z,0000380,00000600,0001.74,0000.96,0000.67,0000.03,0000.39,0000.30,0000.03,-000.03,0000.40,27.3,05.0,0678.2,34.6
2016-07-29T00:43:00Z,0000380,00000600,0002.53,0001.39,0000.50,-000.06,0000.45,0000.09,0000.12,0000.20,-000.19,27.3,05.1,0678.2,34.6
2016-07-29T00:44:00Z,0000380,00000600,0002.39,0001.04,0001.05,-000.08,0000.11,0000.22,0000.13,-000.05,0000.20,27.3,05.0,0678.2,34.6
2016-07-29T00:45:00Z,0000380,00000600,0002.29,0001.28,0000.47,0000.55,0000.45,0000.03,0000.06,0000.16,0000.25,27.3,05.0,0678.2,34.6
2016-07-29T00:46:00Z,0000380,00000600,0002.87,0001.25,0000.30,0000.80,0000.30,0000.20,-000.01,-000.13,-000.06,27.3,05.0,0678.2,34.6
2016-07-29T00:47:00Z,0000380,00000600,0002.25,0000.96,0000.65,-000.02,0000.14,0000.13,0000.17,0000.17,0000.10,27.3,05.0,0678.2,34.6
2016-07-29T00:48:00Z,0000380,00000600,0001.84,0001.17,0000.85,0000.05,0000.30,-000.08,0000.06,0000.32,0000.47,27.3,05.1,0678.2,34.6
2016-07-29T00:49:00Z,0000380,00000600,0002.82,0001.20,0000.52,-000.14,0000.19,-000.11,0000.12,0000.01,-000.36,27.3,05.1,0678.2,34.6
2016-07-29T00:50:00Z,0000380,00000600,0001.97,0001.46,0000.58,-000.22,-000.03,0000.20,0000.11,0000.08,0000.22,27.3,05.0,0678.2,34.6
2016-07-29T00:51:00Z,0000380,00000600,0002.12,0000.39,0000.78,0000.27,0000.47,0000.31,0000.06,0000.04,0000.09,27.3,05.0,0678.2,34.6
2016-07-29T00:52:00Z,0000380,00000600,0001.55,0001.25,0001.18,0000.31,0000.34,0000.09,0000.13,0000.07,-000.14,27.3,05.0,0678.2,34.6
2016-07-29T00:53:00Z,0000380,00000600,0002.33,0001.15,0000.52,0000.31,0000.25,0000.17,0000.01,-000.03,-000.07,27.3,05.0,0678.2,34.6
2016-07-29T00:54:00Z,0000380,00000600,0001.06,0001.34,0000.78,0000.11,0000.51,0000.17,0000.17,0000.38,0000.48,27.3,05.0,0678.2,34.6
2016-07-29T00:55:00Z,0000380,00000600,0001.57,0001.21,0000.48,0000.39,0000.12,-000.33,0000.13,0000.06,-000.14,27.3,05.0,0678.2,34.6
2016-07-29T00:56:00Z,0000380,00000600,0002.15,0001.17,0000.74,0000.34,0000.06,0000.17,0000.08,-000.17,0000.15,27.3,05.0,0678.2,34.6
2016-07-29T00:57:00Z,0000380,40000600,,,,,,,,,,,,0678.1,34.6
2016-07-29T00:58:00Z,0000380,60000600,,,,,,,,,,27.2,05.0,0677.2,34.6
2016-07-29T00:59:00Z,0000380,20000600,,,,,,,,,,27.2,05.0,0677.1,34.6
2016-07-29T01:00:00Z,0000380,20000600,,,,,,,,,,27.2,05.0,0677.1,34.6
2016-07-29T01:01:00Z,0000380,20000600,,,,,,,,,,27.2,04.9,0677.1,34.6
2016-07-29T01:02:00Z,0000380,20000600,,,,,,,,,,27.2,04.8,0677.1,34.6
2016-07-29T01:03:00Z,0000380,60000600,,,,,,,,,,27.2,04.8,0677.1,34.6
2016-07-29T01:04:00Z,0000380,40000600,0002.08,0001.38,0000.32,-000.09,-000.08,-000.23,-000.07,0000.08,0000.08,27.3,04.8,0678.1,34.6
2016-07-29T01:05:00Z,0000380,00000600,0000.69,0001.29,0000.52,-000.20,0000.05,-000.16,0000.04,0000.15,-000.21,27.3,04.8,0678.2,34.6
2016-07-29T01:06:00Z,0000380,00000600,0002.55,0001.37,0001.00,0000.11,0000.36,-000.03,0000.09,0000.03,0000.26,27.3,04.7,0678.2,34.6
2016-07-29T01:07:00Z,0000380,00000600,0002.42,0001.13,0000.39,0000.00,0000.25,0000.36,0000.16,-000.20,-000.03,27.3,04.7,0678.2,34.6
2016-07-29T01:08:00Z,0000380,00000600,0002.20,0001.56,0000.32,-000.11,0000.44,-000.02,0000.05,0000.28,0000.29,27.3,04.6,0678.2,34.6
2016-07-29T01:09:00Z,0000380,00000600,0002.58,0001.24,0000.79,0000.34,0000.30,-000.11,-000.06,0000.11,-000.12,27.3,04.7,0678.2,34.6
2016-07-29T01:10:00Z,0000380,00000600,0001.87,0001.79,0000.35,0000.27,-000.06,-000.27,0000.18,0000.02,0000.06,27.3,04.7,0678.2,34.6
2016-07-29T01:11:00Z,0000380,00000600,0002.61,0001.84,0001.10,0000.22,0000.44,0000.58,-000.09,0000.07,-000.12,27.3,04.6,0678.2,34.6
2016-07-29T01:12:00Z,0000380,00000600,0002.17,0001.24,0000.94,0000.41,0000.19,-000.16,0000.17,0000.04,0000.03,27.3,04.5,0678.2,34.6
2016-07-29T01:13:00Z,0000380,00000600,0002.82,0001.36,0000.31,0000.05,0000.31,-000.16,0000.27,-000.13,-000.02,27.3,04.6,0678.2,34.6
2016-07-29T01:14:00Z,0000380,00000600,0001.98,0000.83,0000.80,0000.31,0000.33,0000.17,-000.14,0000.19,-000.16,27.3,04.4,0678.2,34.6
2016-07-29T01:15:00Z,0000380,00000600,0002.99,0001.11,0000.54,0000.44,0000.45,-000.13,0000.04,0000.11,0000.44,27.3,04.6,0678.2,34.6
2016-07-29T01:16:00Z,0000380,00000600,0001.60,0000.22,0000.76,0000.30,0000.36,0000.47,0000.28,0000.24,0000.05,27.3,04.5,0678.2,34.6
2016-07-29T01:17:00Z,0000380,00000600,0001.73,0000.64,0000.37,0000.17,-000.12,-000.02,-000.08,-000.02,0000.07,27.3,04.4,0678.2,34.6
2016-07-29T01:18:00Z,0000380,00000600,0001.55,0001.14,0000.62,0000.02,0000.09,0000.05,0000.01,0000.03,0000.24,27.3,04.5,0678.2,34.6
2016-07-29T01:19:00Z,0000380,00000600,0002.86,0000.94,0000.41,-000.61,0000.50,0000.09,0000.15,-000.06,-000.29,27.3,04.5,0678.2,34.6
2016-07-29T01:20:00Z,0000380,00000600,0001.59,0001.03,0001.35,0000.13,0000.12,0000.16,-000.12,0000.15,-000.09,27.3,04.6,0678.2,34.6
2016-07-29T01:21:00Z,0000380,00000600,0002.11,0000.38,0000.63,-000.05,0000.12,0000.23,0000.35,0000.03,0000.30,27.3,04.5,0678.1,34.6
2016-07-29T01:22:00Z,0000380,00000600,0001.51,0001.43,0000.45,0000.03,0000.51,-000.06,0000.22,0000.27,0000.39,27.3,04.5,0678.2,34.6
2016-07-29T01:23:00Z,0000380,00000600,0002.32,0001.43,0000.74,0000.08,0000.47,0000.00,-000.27,0000.05,0000.05,27.3,04.5,0678.2,34.6
2016-07-29T01:24:00Z,0000380,00000600,0002.23,0001.49,0000.63,0000.47,0000.28,0000.22,0000.24,0000.33,0000.08,27.3,04.5,0678.2,34.6
2016-07-29T01:25:00Z,0000380,00000600,0001.93,0001.31,0000.55,0000.88,0000.47,0000.00,-000.03,-000.11,-000.15,27.3,04.4,0678.2,34.6
2016-07-29T01:26:00Z,0000380,00000600,0001.96,0001.29,0000.97,0000.72,0000.39,-000.14,0000.18,-000.08,-000.08,27.3,04.5,0678.2,34.6
2016-07-29T01:27:00Z,0000380,00000600,0002.04,0001.54,0001.14,0000.75,0000.33,0000.38,0000.14,0000.07,0000.35,27.4,04.5,0678.2,34.6
2016-07-29T01:28:00Z,0000380,00000600,0001.81,0001.19,-000.05,0000.00,-000.14,-000.50,0000.24,0000.07,-000.04,27.3,04.5,0678.1,34.6
2016-07-29T01:29:00Z,0000380,00000600,0002.46,0001.02,0001.23,0000.13,0000.12,0000.34,0000.02,0000.12,-000.05,27.3,04.5,0678.1,34.6
2016-07-29T01:30:00Z,0000380,00000600,0002.38,0001.03,0000.60,-000.30,0000.03,0000.25,-000.09,0000.06,0000.29,27.3,04.5,0678.1,34.6
2016-07-29T01:31:00Z,0000380,00000600,0001.96,0001.38,0000.54,0000.33,0000.14,-000.14,0000.16,0000.06,-000.14,27.3,04.5,0678.2,34.6
2016-07-29T01:32:00Z,0000380,00000600,0002.56,0001.51,0000.92,0000.22,-000.14,0000.17,0000.25,0000.20,0000.19,27.3,04.5,0678.1,34.6
2016-07-29T01:33:00Z,0000380,00000600,0001.55,0000.42,0000.27,0000.17,-000.06,0000.02,0000.05,-000.17,0000.04,27.4,04.4,0678.2,34.6
2016-07-29T01:34:00Z,0000380,00000600,0001.64,0001.25,0000.44,0000.08,0000.54,0000.27,-000.08,0000.22,-000.26,27.3,04.4,0678.1,34.6
2016-07-29T01:35:00Z,0000380,00000600,0002.51,0001.10,0000.87,0000.86,-000.08,0000.08,0000.35,0000.20,0000.38,27.3,04.4,0678.1,34.6
2016-07-29T01:36:00Z,0000380,00000600,0002.44,0001.67,0000.55,0000.64,0000.23,-000.02,-000.02,-000.04,-000.05,27.3,04.4,0678.2,34.6
2016-07-29T01:37:00Z,0000380,00000600,0001.39,0001.43,0000.84,-000.34,0000.26,0000.06,0000.03,0000.05,0000.13,27.3,04.4,0678.1,34.6
2016-07-29T01:38:00Z,0000380,00000600,0001.95,0001.36,0000.69,0000.31,-000.20,-000.02,-000.07,-000.03,-000.29,27.3,04.4,0678.1,34.6
2016-07-29T01:39:00Z,0000380,00000600,0001.72,0001.11,0000.40,-000.09,0000.20,0000.03,0000.41,0000.31,0000.43,27.3,04.4,0678.1,34.6
2016-07-29T01:40:00Z,0000380,00000600,0001.95,0001.35,0000.55,0000.56,0000.28,0000.02,-000.28,-000.14,-000.05,27.3,04.4,0678.1,34.6
2016-07-29T01:41:00Z,0000380,00000600,0001.92,0001.08,0000.43,-000.25,-000.02,0000.11,0000.34,0000.26,0000.03,27.3,04.5,0678.1,34.6
2016-07-29T01:42:00Z,0000380,00000600,0000.60,0001.14,0000.55,0000.20,0000.05,0000.44,0000.01,0000.10,0000.07,27.3,04.5,0678.1,34.6
2016-07-29T01:43:00Z,0000380,00000600,0002.03,0000.97,0001.16,0000.13,0000.39,0000.34,0000.27,0000.07,0000.20,27.3,04.5,0678.1,34.6
2016-07-29T01:44:00Z,0000380,00000600,0001.91,0000.75,0000.00,-000.11,0000.26,0000.19,-000.02,-000.03,-000.07,27.3,04.5,0678.1,34.6
2016-07-29T01:45:00Z,0000380,00000600,0001.62,0000.99,0000.66,-000.02,0000.20,0000.25,0000.00,0000.09,0000.24,27.3,04.4,0678.1,34.6
2016-07-29T01:46:00Z,0000380,00000600,0001.77,0000.87,0000.87,0000.42,0000.39,-000.39,0000.18,0000.15,-000.06,27.4,04.5,0678.1,34.6
2016-07-29T01:47:00Z,0000380,00000600,0001.25,0001.32,0001.32,0000.33,0000.36,0000.06,0000.19,-000.01,0000.30,27.3,04.5,0678.1,34.6
2016-07-29T01:48:00Z,0000380,00000600,0001.70,0001.05,0000.64,0000.03,0000.31,0000.03,-000.04,0000.11,-000.24,27.3,04.4,0678.1,34.6
2016-07-29T01:49:00Z,0000380,00000600,0001.23,0001.38,0000.95,0000.56,0000.20,-000.17,0000.15,0000.06,0000.31,27.3,04.4,0678.1,34.6
2016-07-29T01:50:00Z,0000380,00000600,0001.74,0001.97,0000.30,-000.05,0000.20,0000.02,0000.07,0000.24,-000.20,27.3,04.4,0678.1,34.6
2016-07-29T01:51:00Z,0000388,00000608,0001.44,0000.98,0000.80,0000.50,0000.23,-000.20,-000.10,-000.19,0000.06,27.3,04.4,0678.1,34.6
2016-07-29T01:52:00Z,0000388,00000608,0001.53,0000.91,0000.89,0000.52,0000.51,0000.23,0000.08,0000.15,0000.11,27.4,04.3,0678.1,34.6
2016-07-29T01:53:00Z,0000388,00000608,0002.39,0001.40,0000.67,0000.08,0000.02,0000.02,0000.21,0000.22,0000.15,27.3,04.4,0678.1,34.6
2016-07-29T01:54:00Z,0000388,00000608,0002.84,0001.33,0001.01,0000.13,-000.16,-000.14,0000.07,-000.00,0000.15,27.3,04.4,0678.1,34.6
2016-07-29T01:55:00Z,0000388,00000608,0002.07,0000.91,0000.31,0000.69,0000.00,0000.00,-000.07,0000.01,-000.03,27.3,04.3,0678.0,34.6
2016-07-29T01:56:00Z,0000388,00000608,0002.30,0001.32,0000.45,0000.28,0000.30,-000.16,-000.00,0000.09,-000.06,27.3,04.4,0678.0,34.6
2016-07-29T01:57:00Z,0000388,40000608,,,,,,,,,,,,0678.0,34.6
2016-07-29T01:58:00Z,0000388,60000608,,,,,,,,,,27.2,04.5,0677.0,34.6
2016-07-29T01:59:00Z,0000388,20000608,,,,,,,,,,27.2,04.5,0677.0,34.6
2016-07-29T02:00:00Z,0000388,20000608,,,,,,,,,,27.2,04.5,0677.0,34.6
2016-07-29T02:01:00Z,0000388,20000608,,,,,,,,,,27.2,04.3,0677.0,34.6
2016-07-29T02:02:00Z,0000388,20000608,,,,,,,,,,27.2,04.3,0677.0,34.6
2016-07-29T02:03:00Z,0000388,60000608,,,,,,,,,,27.2,04.3,0677.0,34.6
2016-07-29T02:04:00Z,0000388,40000608,0001.81,0000.82,0000.31,-000.11,-000.31,0000.16,-000.28,-000.09,0000.08,27.3,04.3,0677.9,34.6
2016-07-29T02:05:00Z,0000388,00000608,0000.38,0000.22,0000.64,0000.48,-000.26,0000.13,0000.04,0000.13,0000.01,27.3,04.2,0678.0,34.6
2016-07-29T02:06:00Z,0000388,00000608,0001.59,0000.85,0000.50,0000.13,0000.14,0000.11,0000.01,0000.03,0000.16,27.3,04.2,0678.0,34.6
2016-07-29T02:07:00Z,0000388,00000608,0000.20,0000.00,0000.18,0000.25,-000.08,-000.20,0000.14,-000.14,-000.36,27.4,04.1,0678.0,34.6
2016-07-29T02:08:00Z,0000388,00000608,0001.22,0000.96,0000.52,0000.31,0000.33,-000.09,0000.09,0000.07,0000.27,27.4,04.0,0678.0,34.6
2016-07-29T02:09:00Z,0000388,00000608,0000.43,0000.83,0000.27,0000.36,0000.12,0000.11,-000.02,-000.13,-000.22,27.4,04.0,0678.0,34.6
2016-07-29T02:10:00Z,0000388,00000608,0000.31,0000.29,0001.00,0000.83,-000.19,0000.11,-000.13,-000.06,0000.06,27.4,04.0,0678.0,34.6
2016-07-29T02:11:00Z,0000388,00000608,0000.14,0000.11,0000.13,0000.34,0000.06,0000.09,-000.23,-000.13,-000.05,27.4,03.7,0678.0,34.6
2016-07-29T02:12:00Z,0000388,00000608,0000.75,0000.07,0000.07,0000.45,0000.14,-000.17,-000.03,0000.03,-000.01,27.4,03.6,0678.0,34.6
2016-07-29T02:13:00Z,0000388,00000608,0000.76,0000.37,0000.22,0000.38,0000.14,-000.28,0000.23,-000.10,0000.23,27.4,03.5,0678.0,34.6
2016-07-29T02:14:00Z,0000388,00000608,0000.64,0000.41,0000.55,0000.27,-000.11,-000.09,-000.18,0000.12,-000.56,27.4,03.5,0678.0,34.6
2016-07-29T02:15:00Z,0000388,00000608,0000.72,0000.25,0000.15,0000.70,0000.31,-000.33,-000.07,-000.07,0000.14,27.4,03.5,0678.0,34.6
2016-07-29T02:16:00Z,0000388,00000608,0001.72,0000.66,0000.62,0000.89,0000.19,0000.38,0000.26,0000.35,0000.20,27.4,03.4,0678.0,34.6
2016-07-29T02:17:00Z,0000388,00000608,0000.60,0001.05,0000.17,0000.48,0000.33,0000.00,-000.09,-000.38,-000.17,27.4,03.2,0677.9,34.6
2016-07-29T02:18:00Z,0000388,00000608,0001.95,0000.54,0000.38,-000.31,-000.34,0000.20,0000.15,0000.16,0000.17,27.3,03.2,0677.9,34.6
2016-07-29T02:19:00Z,0000388,00000608,0000.82,0000.14,0000.43,0000.23,-000.33,-000.22,-000.25,-000.04,0000.11,27.3,03.2,0677.9,34.6
2016-07-29T02:20:00Z,0000388,00000608,0000.90,0000.52,-000.12,0000.52,0000.25,0000.30,0000.09,-000.02,-000.53,27.3,03.1,0677.8,34.6
2016-07-29T02:21:00Z,0000388,00000608,0001.10,0000.71,-000.03,0000.14,0000.12,-000.13,0000.05,-000.10,0000.09,27.3,03.1,0677.8,34.6
2016-07-29T02:22:00Z,0000388,00000608,0001.02,0000.30,0000.16,0000.34,0000.45,-000.03,0000.17,0000.35,0000.29,27.3,02.9,0677.7,34.6
2016-07-29T02:23:00Z,0000388,00000608,0000.64,0000.36,0000.05,0000.95,-000.31,-000.02,0000.04,0000.06,0000.06,27.3,02.9,0677.7,34.6
2016-07-29T02:24:00Z,0000388,00000608,0000.48,0000.32,0000.53,0001.13,-000.09,0000.22,0000.03,0000.09,0000.03,27.3,02.9,0677.7,34.6
2016-07-29T02:25:00Z,0000388,00000608,0000.69,-000.17,0000.09,0000.72,0000.47,0000.02,-000.12,-000.14,-000.16,27.3,02.9,0677.7,34.6
2016-07-29T02:26:00Z,0000388,00000608,0001.17,0001.01,0001.08,0000.31,-000.16,0000.16,0000.29,0000.09,0000.06,27.3,02.9,0677.7,34.6
2016-07-29T02:27:00Z,0000388,00000608,0000.94,0000.12,-000.31,0000.31,0000.11,-000.13,-000.06,0000.08,0000.08,27.3,02.8,0677.6,34.6
2016-07-29T02:28:00Z,0000388,00000608,0000.51,0000.37,0000.73,0000.08,0000.17,-000.09,0000.21,0000.08,-000.16,27.3,02.8,0677.6,34.6
2016-07-29T02:29:00Z,0000388,00000608,0000.65,0000.37,-000.34,0000.23,0000.03,-000.09,0000.03,-000.01,0000.33,27.3,02.8,0677.6,34.6
2016-07-29T02:30:00Z,0000388,00000608,0001.05,0000.18,0000.27,0000.66,0000.08,-000.02,-000.07,-000.07,-000.21,27.3,02.6,0677.6,34.6
2016-07-29T02:31:00Z,0000388,00000608,0000.33,-000.03,0000.41,0000.81,-000.16,0000.39,0000.02,0000.06,0000.25,27.4,02.8,0677.6,34.6
2016-07-29T02:32:00Z,0000388,00000608,0001.05,0001.19,0001.59,0000.39,0000.53,0000.08,0000.29,0000.22,0000.13,27.3,02.7,0677.6,34.6
2016-07-29T02:33:00Z,0000388,00000608,-000.02,0000.07,0000.23,0000.75,0000.00,0000.27,-000.30,-000.13,-000.09,27.4,02.7,0677.7,34.6
2016-07-29T02:34:00Z,0000388,00000608,0001.26,0000.00,0000.43,0000.61,-000.26,-000.06,-000.06,0000.01,-000.22,27.4,02.5,0677.6,34.6
2016-07-29T02:35:00Z,0000388,00000608,0000.70,0000.05,0000.06,0000.52,-000.16,0000.34,0000.30,0000.13,0000.27,27.3,02.5,0677.6,34.6
2016-07-29T02:36:00Z,0000388,00000608,0000.95,0000.38,0000.58,0000.38,0000.25,0000.17,0000.09,0000.05,0000.15,27.4,02.4,0677.6,34.6
2016-07-29T02:37:00Z,0000388,00000608,0001.29,0000.67,0000.04,0000.09,-000.28,-000.02,-000.05,-000.28,-000.29,27.4,02.4,0677.6,34.6
2016-07-29T02:38:00Z,0000388,00000608,-000.03,-000.16,0000.50,0000.09,0000.23,0000.28,0000.10,0000.18,0000.08,27.4,02.4,0677.6,34.6
2016-07-29T02:39:00Z,0000388,00000608,0000.13,-000.18,0000.06,0000.34,0000.02,0000.14,-000.25,0000.10,-000.13,27.4,02.4,0677.6,34.6
2016-07-29T02:40:00Z,0000388,00000608,0000.52,0000.04,0000.83,0000.31,0000.06,0000.09,0000.24,0000.02,0000.40,27.4,02.3,0677.6,34.6
2016-07-29T02:41:00Z,0000388,00000608,0000.65,0000.20,0000.49,0000.34,0000.39,0000.06,-000.03,0000.17,-000.41,27.4,02.4,0677.6,34.6
2016-07-29T02:42:00Z,0000388,00000608,0000.78,0000.03,-000.14,0000.39,-000.25,-000.33,0000.05,-000.22,0000.24,27.4,02.2,0677.6,34.6
2016-07-29T02:43:00Z,0000388,00000608,0001.13,0000.48,0000.62,0000.25,-000.26,0000.06,-000.03,0000.16,-000.06,27.4,02.3,0677.6,34.6
2016-07-29T02:44:00Z,0000388,00000608,0000.95,0000.30,0000.06,0000.55,0000.31,0000.17,-000.01,0000.05,-000.00,27.4,02.3,0677.6,34.6
2016-07-29T02:45:00Z,0000388,00000608,0000.58,0000.09,0000.69,0000.70,-000.51,0000.08,0000.09,-000.03,0000.18,27.4,02.3,0677.6,34.6
2016-07-29T02:46:00Z,0000388,00000608,0000.41,0000.02,0000.43,-000.02,-000.05,0000.11,-000.10,0000.05,0000.10,27.4,02.3,0677.6,34.6
2016-07-29T02:47:00Z,0000388,00000608,0000.38,0000.04,0000.55,0000.31,-000.39,0000.33,0000.39,0000.08,-000.08,27.4,02.3,0677.6,34.6
2016-07-29T02:48:00Z,0000388,00000608,-000.09,0000.28,0000.54,0000.75,-000.22,0000.20,0000.05,0000.17,0000.31,27.4,02.2,0677.6,34.6
2016-07-29T02:49:00Z,0000388,00000608,-000.82,0001.03,0000.18,0000.34,-000.19,0000.36,-000.17,-000.08,-000.22,27.4,02.2,0677.6,34.6
2016-07-29T02:50:00Z,0000388,00000608,0000.97,0000.06,0000.64,0000.50,0000.08,0000.03,0000.07,0000.12,-000.16,27.4,02.2,0677.6,34.6
2016-07-29T02:51:00Z,0000388,00000608,0000.56,0000.24,0000.11,0000.55,-000.02,-000.11,-000.30,-000.15,0000.09,27.4,02.3,0677.6,34.6
2016-07-29T02:52:00Z,0000388,00000608,0000.10,-000.14,-000.15,0000.48,-000.22,-000.14,0000.21,0000.11,-000.02,27.3,02.3,0677.6,34.6
2016-07-29T02:53:00Z,0000388,00000608,-000.05,-000.46,-000.07,0000.66,-000.48,0000.23,0000.09,-000.13,-000.24,27.4,02.2,0677.6,34.6
2016-07-29T02:54:00Z,0000388,00000608,0000.05,0000.13,0000.45,0000.80,0000.19,0000.20,-000.03,0000.08,0000.23,27.4,02.3,0677.6,34.6
2016-07-29T02:55:00Z,0000388,00000608,0000.95,-000.20,-000.21,0000.14,0000.20,-000.11,0000.01,0000.03,0000.22,27.3,02.2,0677.5,34.6
2016-07-29T02:56:00Z,0000388,00000608,0000.20,0001.39,0001.93,-000.16,0000.26,0000.38,0000.72,0000.71,0000.12,27.4,02.3,0677.6,34.6
2016-07-29T02:57:00Z,0000388,40000608,,,,,,,,,,,,0677.4,34.6
2016-07-29T02:58:00Z,0000388,60000608,,,,,,,,,,27.2,02.6,0676.5,34.6
2016-07-29T02:59:00Z,0000388,20000608,,,,,,,,,,27.2,02.5,0676.5,34.6
2016-07-29T03:00:00Z,0000388,20000608,,,,,,,,,,27.2,02.4,0676.5,34.6
2016-07-29T03:01:00Z,0000388,20000608,,,,,,,,,,27.2,02.4,0676.5,34.6
2016-07-29T03:02:00Z,0000388,20000608,,,,,,,,,,27.2,02.4,0676.5,34.6
2016-07-29T03:03:00Z,0000388,60000608,,,,,,,,,,27.2,02.4,0676.5,34.6
2016-07-29T03:04:00Z,0000388,40000608,0000.05,-000.02,0000.13,-000.14,-000.31,0000.11,-000.12,-000.09,-000.04,27.3,02.2,0677.4,34.6
2016-07-29T03:05:00Z,0000388,00000608,0000.60,-000.21,0000.12,-000.41,-000.11,0000.34,-000.19,0000.20,0000.28,27.3,02.1,0677.4,34.6
2016-07-29T03:06:00Z,0000388,00000608,0000.03,0000.53,0000.02,-000.49,-000.12,0000.39,0000.17,-000.17,-000.08,27.3,02.1,0677.4,34.6
2016-07-29T03:07:00Z,0000388,00000608,-000.51,0000.25,-000.13,0000.78,0000.22,0000.05,0000.02,0000.05,-000.23,27.3,02.1,0677.4,34.6
2016-07-29T03:08:00Z,0000388,00000608,0000.84,-000.48,0000.20,0000.16,0000.28,0000.36,0000.11,0000.10,0000.01,27.3,02.2,0677.3,34.6
2016-07-29T03:09:00Z,0000388,00000608,-000.02,-000.24,0000.07,-000.20,-000.03,0000.06,-000.16,-000.21,-000.03,27.3,02.1,0677.3,34.6
2016-07-29T03:10:00Z,0000388,00000608,0000.21,-000.09,0000.50,0000.03,-000.09,-000.02,0000.10,-000.02,0000.07,27.3,02.1,0677.3,34.6
2016-07-29T03:11:00Z,0000388,00000608,-000.54,-000.21,0000.40,-000.34,0000.14,0000.45,-000.11,0000.06,0000.09,27.2,02.1,0677.3,34.6
2016-07-29T03:12:00Z,0000388,00000608,0000.10,0000.46,-000.10,0000.03,0000.20,0000.36,0000.19,0000.11,0000.11,27.3,02.0,0677.3,34.6